Location: Domont
(49.0278°N, 2.3264°E)
Time: 00:35:39
(UTC+00:00)

Orbus 7S? - Pass Details

Date: 02 June 2022
Orbit: 340 x 6374 km, 56.9° (Epoch: 04 July)

Event Time Altitude Azimuth Distance (km) Brightness Sun altitude
Exits shadow 00:10:50 - 233° (SW) 4,671 7.6 -18.6°
Reaches altitude 10° 00:12:05 10° 234° (SW) 4,377 7.5 -18.6°
Maximum altitude 00:25:36 89° 324° (NW) 3,624 7.3 -18.3°
Drops below altitude 10° 01:01:32 10° 61° (ENE) 9,857 10.3 -17.0°
Sets 01:10:25 0° 64° (ENE) 11,057 10.6 -16.5°
